Location: Castillon
(43.1358°N, 0.8654°E)
Time: 19:01:41
(UTC+00:00)

USA 267 - Pass Details

Date: 24 January 2021
Orbit: 1102 x 1106 km, 123.0° (Epoch: 22 February)

Event Time Altitude Azimuth Distance (km) Brightness Sun altitude
Exits shadow 20:29:15 38° 231° (SW) 1,629 4.3 -38.3°
Drops below altitude 10° 20:32:58 10° 231° (SW) 2,955 5.9 -38.9°
Sets 20:35:26 0° 232° (SW) 3,911 6.6 -39.4°
